Location: Saratoga Springs
(43.0831°N, 73.7850°W)
Time: 16:31:18
(UTC-04:00)

Tiros 1 - Pass Details

Date: 16 April 2024
Orbit: 624 x 657 km, 48.4° (Epoch: 28 May)

Event Time Altitude Azimuth Distance (km) Brightness Sun altitude
Rises 01:04:53 0° 196° (SSW) 2,916 - -36.6°
Reaches altitude 10° 01:07:48 10° 178° (S) 2,005 - -36.5°
Maximum altitude 01:10:56 18° 135° (SE) 1,537 - -36.5°
Drops below altitude 10° 01:14:03 10° 92° (E) 2,001 - -36.4°
Exits shadow 01:16:56 - 74° (ENE) 2,900 10.8 -36.4°
Sets 01:16:57 0° 74° (ENE) 2,908 10.8 -36.4°
